Simultaneous Nadir Overpasses (SNOs) Predictions

Prediction of SNOs between METOP-C and LANDSAT-8 Satellite Orbit:

Table of predicted SNOs for the next 14.0 days since TLE Epoch: 3/30/2024
Index Date (METOP-C) Time (METOP-C) Lat,Lon (METOP-C) SZA (METOP-C ) Date (LANDSAT-8) Time (LANDSAT-8) Lat,Lon (LANDSAT-8) SZA (LANDSAT-8 ) Distance(km) Time Diff (sec)
1 03/30/2024 05:14:21 -81.14, -39.07 100.92 03/30/2024 05:15:04 -81.13, -39.22 100.92 2.75 43
2 03/30/2024 06:04:59 81.17, 129.09 79.18 03/30/2024 06:04:29 81.16, 128.90 79.14 3.20 30
3 04/02/2024 00:48:41 -81.14, 27.26 101.99 04/02/2024 00:49:19 -81.15, 27.42 101.95 2.96 38
4 04/02/2024 01:39:20 81.15,-164.95 78.06 04/02/2024 01:38:45 81.15,-164.86 78.05 1.58 35
5 04/04/2024 20:22:59 -81.14, 93.83 103.02 04/04/2024 20:23:33 -81.14, 93.72 103.02 2.00 34
6 04/04/2024 21:13:38 81.16, -98.36 77.03 04/04/2024 21:12:58 81.16, -98.23 77.03 2.33 40
7 04/07/2024 15:57:19 -81.13, 159.91 104.10 04/07/2024 15:57:47 -81.13, 160.05 104.07 2.40 28
8 04/07/2024 16:47:57 81.16, -31.88 76.00 04/07/2024 16:47:12 81.15, -31.93 75.97 0.98 45
9 04/10/2024 11:31:37 -81.14,-133.39 105.08 04/10/2024 11:31:59 -81.15,-133.23 105.05 2.83 22



Historial Predications of SNOs between METOP-C and LANDSAT-8
